KBGRKBHB

Guest
Details From KBGR - Bangor Intl
To KBHB - Hancock Co Bar Harbor
Flight Number -
Tags Generated
Created
Modified
Stats Distance 30 nm / 56 km
Max Altitude 0 ft / 0 m
Waypoints 2
Social Downloads 1
Likes 0
Share VATSIM

Download

Looking for another format? Having issues loading an existing format? Contact us
Advertisement - Login to hide

Notes

Generated

Route

KBGR KBHB

ID Type Via Altitude Latitude Longitude Leg Dist Tot Dist Heading (true) Name
O KBGR APT - 0 ft / 0 m 44.81837˚ -68.84393˚ - 0 nm - -
O KBHB APT - 0 ft / 0 m 44.45267˚ -68.36220˚ 30 nm 30 nm 137° / 137° Hancock Co Bar Harbor

Altitude Profile

Advertisement - Login to hide

KBGR

Details ICAO KBGR (BGR)
Name BANGOR INTL
Region United States
Timezone America/New_York (UTC-4.0)
Stats Elevation 192 ft / 59 m (AMSL)
Location 44.807437° -68.828126°
Runways 1
Magnetic Variation 16.110° W

METAR

KBGR 261953Z 02010KT 10SM SCT043 BKN090 BKN140 OVC250 24/09 A2979 RMK AO2 SLP085 T02440094

Decode

TAF

TAF KBGR 261720Z 2618/2718 33006KT P6SM VCSH BKN070 FM261900 34005KT P6SM BKN090

Decode

Departure Runways

ID Width Length Bearing (true) Bearing (mag) Surface Threshold Offset Overrun Length
15 200 ft / 61 m 11,430 ft / 3,484 m 134.27° 150.38° Asphalt 0 ft / 0 m 1,000 ft / 305 m
33 200 ft / 61 m 11,430 ft / 3,484 m 314.29° 330.40° Asphalt 0 ft / 0 m 1,000 ft / 305 m

KBHB

Details ICAO KBHB (BHB)
Name Hancock Co Bar Harbor
Region United States
Timezone America/New_York (UTC-4.0)
Stats Elevation 83 ft / 25 m (AMSL)
Location 44.449530° -68.361037°
Runways 2
Magnetic Variation 16.153° W

METAR

KBHB 261956Z AUTO 34008KT 10SM SCT080 BKN090 23/16 A2978 RMK AO2 SLP087 T02330156 $

Decode

TAF

TAF KBHB 261720Z 2618/2718 29006KT P6SM VCSH BKN060 FM262000 VRB03KT P6SM BKN070

Decode

Destination Runways

ID Width Length Bearing (true) Bearing (mag) Surface Threshold Offset Overrun Length
04 98 ft / 30 m 5,205 ft / 1,586 m 24.54° 40.69° Asphalt 0 ft / 0 m 0 ft / 0 m
17 75 ft / 23 m 3,356 ft / 1,023 m 149.60° 165.75° Asphalt 682 ft / 208 m 0 ft / 0 m
22 98 ft / 30 m 5,205 ft / 1,586 m 204.55° 220.70° Asphalt 0 ft / 0 m 0 ft / 0 m
35 75 ft / 23 m 3,356 ft / 1,023 m 329.60° 345.75° Asphalt 112 ft / 34 m 0 ft / 0 m

Approach Navaids

Runway Type Ident Frequency Range Bearing (true) Bearing (mag) Slope Elevation
22 Localiser IBHB 108.30 MHz 18 nm / 33 km 204.56° 220.71° - 62 ft / 19 m (AMSL)
22 Glidescope IBHB 108.30 MHz 10 nm / 19 km 204.54° 220.70° 3.00° 72 ft / 22 m (AMSL)
22 DME IBHB 108.30 MHz 18 nm / 33 km - - - 76 ft / 23 m (AMSL)

Popular Alternatives